DW6119 Weather Reports


Display with metric or nautical units.
time (UTC)temp
F
wind
direction
speed
MPH
gust
MPH
rain 1hr
in
rain 24hr
in
rain mn
in
humidity
%
barometer
mb
20260510093406 60 233 0.0 2.0 0.19 0.19 0.19 88 1015.9
20260510092405 60 250 1.0 7.0 0.19 0.19 0.19 85 1015.9
20260510091404 59 255 3.0 5.0 0.18 0.18 0.18 86 1016.3
20260510090904 58 223 2.0 3.0 0.18 0.18 0.18 88 1016.3
20260510090404 59 186 2.0 3.0 0.18 0.18 0.18 88 1016.3
20260510085905 60 243 1.0 2.0 0.14 0.14 0.14 86 1016.3
20260510085404 63 231 0.0 1.0 0.08 0.08 0.08 81 1015.9
20260510084904 64 67 0.0 1.0 0.00 0.00 0.00 68 1015.9
20260510084404 64 49 0.0 1.0 0.00 0.00 0.00 66 1015.7
20260510083904 64 35 0.0 1.0 0.00 0.00 0.00 65 1015.4
20260510082905 64 50 0.0 1.0 0.00 0.00 0.00 65 1015.2
20260510082404 64 60 0.0 1.0 0.00 0.00 0.00 65 1015.2
20260510081906 64 70 0.0 2.0 0.00 0.00 0.00 65 1015.2
20260510081404 64 266 0.0 2.0 0.00 0.00 0.00 65 1015.5
20260510080905 64 49 1.0 1.0 0.00 0.00 0.00 65 1015.2
20260510080406 64 51 0.0 1.0 0.00 0.00 0.00 65 1015.2
20260510075904 64 55 0.0 2.0 0.00 0.00 0.00 65 1015.2
20260510075404 64 100 0.0 2.0 0.00 0.00 0.00 66 1015.3
20260510074904 64 66 1.0 3.0 0.00 0.00 0.00 65 1015.2
20260510073905 63 81 0.0 3.0 0.00 0.00 0.00 66 1015.2
20260510072904 62 165 0.0 5.0 0.00 0.00 0.00 67 1015.2
20260510072404 62 46 2.0 5.0 0.00 0.00 0.00 68 1015.2
20260510071904 62 70 2.0 5.0 0.00 0.00 0.00 68 1015.5
20260510071404 62 77 3.0 5.0 0.00 0.00 0.00 68 1015.2
20260510070905 62 52 3.0 5.0 0.00 0.00 0.00 68 1015.5
20260510070405 62 3 1.0 2.0 0.00 0.00 0.00 68 1015.2
20260510065904 62 58 1.0 2.0 0.00 0.00 0.00 68 1015.3
20260510065405 62 91 0.0 2.0 0.00 0.00 0.00 69 1015.2
20260510064904 62 63 1.0 2.0 0.00 0.00 0.00 69 1015.6
20260510064404 61 93 0.0 3.0 0.00 0.00 0.00 70 1015.6
20260510063904 61 81 0.0 5.0 0.00 0.00 0.00 71 1015.8
20260510063404 61 56 1.0 5.0 0.00 0.00 0.00 71 1015.6
20260510062404 61 37 1.0 5.0 0.00 0.00 0.00 71 1015.6
20260510061904 61 66 1.0 5.0 0.00 0.00 0.00 71 1015.8
20260510061405 61 44 0.0 3.0 0.00 0.00 0.00 71 1015.9
20260510060904 61 53 1.0 3.0 0.00 0.00 0.00 70 1015.9
20260510060405 61 71 0.0 3.0 0.00 0.00 0.00 71 1015.9
20260510055905 60 22 0.0 3.0 0.00 0.00 0.00 72 1015.9
20260510055405 60 178 0.0 3.0 0.00 0.00 0.00 72 1015.9
20260510054904 60 224 1.0 3.0 0.00 0.00 0.00 73 1015.9
20260510054405 60 114 0.0 5.0 0.00 0.00 0.00 74 1015.9
20260510053904 59 66 1.0 7.0 0.00 0.00 0.00 75 1015.9
20260510053405 59 66 1.0 7.0 0.00 0.00 0.00 74 1015.9
20260510052904 59 176 1.0 5.0 0.00 0.00 0.00 74 1015.9
20260510052405 59 102 1.0 5.0 0.00 0.00 0.00 75 1016.0
20260510051904 59 57 0.0 5.0 0.00 0.00 0.00 75 1015.9
20260510050904 59 60 1.0 5.0 0.00 0.00 0.00 76 1015.9
20260510050404 59 73 1.0 5.0 0.00 0.00 0.00 77 1015.9
20260510045904 59 65 1.0 3.0 0.00 0.00 0.00 76 1015.9
20260510045404 58 92 0.0 3.0 0.00 0.00 0.00 77 1015.9
20260510044905 58 120 1.0 5.0 0.00 0.00 0.00 77 1015.9
20260510044404 58 94 1.0 5.0 0.00 0.00 0.00 77 1016.3
20260510043904 58 81 1.0 3.0 0.00 0.00 0.00 77 1016.2
20260510042905 58 131 0.0 2.0 0.00 0.00 0.00 77 1016.3
20260510041904 58 132 0.0 3.0 0.00 0.00 0.00 77 1016.3
20260510041405 58 119 1.0 3.0 0.00 0.00 0.00 77 1016.3
20260510040905 58 97 0.0 5.0 0.00 0.00 0.00 77 1016.3
20260510040404 58 90 1.0 5.0 0.00 0.00 0.00 77 1016.3
20260510035906 58 61 2.0 3.0 0.00 0.00 0.00 78 1016.6
20260510035404 58 69 1.0 1.0 0.00 0.00 0.00 78 1016.5
20260510034905 58 62 0.0 1.0 0.00 0.00 0.00 79 1016.3
20260510034404 58 211 0.0 3.0 0.00 0.00 0.00 77 1016.4
20260510033905 58 308 0.0 3.0 0.00 0.00 0.00 77 1016.4
20260510033404 58 51 1.0 7.0 0.00 0.00 0.00 77 1016.4
20260510032906 58 78 1.0 7.0 0.00 0.00 0.00 76 1016.6
20260510032404 58 67 2.0 7.0 0.00 0.00 0.00 76 1016.6
20260510031904 59 77 0.0 3.0 0.00 0.00 0.00 76 1016.6
20260510031404 59 77 1.0 3.0 0.00 0.00 0.00 75 1016.6
20260510030904 59 75 1.0 2.0 0.00 0.00 0.00 75 1016.6
20260510030404 59 176 0.0 1.0 0.00 0.00 0.00 75 1016.6
20260510025906 59 154 0.0 3.0 0.00 0.00 0.00 76 1016.7
20260510025404 59 82 1.0 3.0 0.00 0.00 0.00 76 1016.8
20260510024905 59 52 1.0 3.0 0.00 0.00 0.00 75 1016.9
20260510024406 59 104 0.0 2.0 0.00 0.00 0.00 76 1016.7
20260510023404 59 111 1.0 1.0 0.00 0.00 0.00 76 1016.9
20260510022905 59 71 0.0 3.0 0.00 0.00 0.00 76 1017.0
20260510022404 59 233 0.0 3.0 0.00 0.00 0.00 75 1017.3
20260510021904 59 253 2.0 3.0 0.00 0.00 0.00 75 1017.1
20260510021405 59 256 1.0 1.0 0.00 0.00 0.00 76 1017.3
20260510020906 58 82 0.0 1.0 0.00 0.00 0.00 76 1017.3
20260510020404 58 72 1.0 1.0 0.00 0.00 0.00 78 1017.3
20260510015904 57 71 0.0 1.0 0.00 0.00 0.00 80 1017.3
20260510015406 57 234 0.0 1.0 0.00 0.00 0.00 79 1017.2
20260510014904 57 253 1.0 1.0 0.00 0.00 0.00 79 1017.0
20260510014404 58 83 0.0 1.0 0.00 0.00 0.00 78 1016.9
20260510013905 58 220 1.0 1.0 0.00 0.00 0.00 78 1017.3
20260510013405 58 252 0.0 1.0 0.00 0.00 0.00 78 1017.3
20260510012905 58 234 1.0 1.0 0.00 0.00 0.00 79 1017.3
20260510010406 58 118 0.0 1.0 0.00 0.00 0.00 78 1017.3
20260510004405 59 149 0.0 1.0 0.00 0.00 0.00 75 1017.3
20260510003405 59 73 0.0 0.0 0.00 0.00 0.00 77 1017.3
20260510002905 59 64 0.0 1.0 0.00 0.00 0.00 77 1017.3
20260510002404 59 64 0.0 1.0 0.00 0.00 0.00 76 1017.3
20260510001905 59 67 0.0 1.0 0.00 0.00 0.00 76 1017.3
20260510001404 59 183 0.0 1.0 0.00 0.00 0.00 75 1017.3
20260510000905 59 142 0.0 1.0 0.00 0.00 0.00 76 1017.4
20260510000404 59 217 0.0 1.0 0.00 0.00 0.00 76 1017.3
20260509235905 59 71 0.0 1.0 0.00 0.00 0.00 76 1017.5
20260509235405 59 241 0.0 1.0 0.00 0.00 0.00 75 1017.3
20260509233904 60 61 0.0 1.0 0.00 0.00 0.00 75 1017.3
20260509233404 60 55 0.0 0.0 0.00 0.00 0.00 73 1017.3
20260509232904 61 42 0.0 0.0 0.00 0.00 0.00 73 1017.3
20260509232405 61 300 0.0 2.0 0.00 0.00 0.00 72 1017.3
20260509231905 62 44 0.0 2.0 0.00 0.00 0.00 70 1017.6
20260509231404 61 62 2.0 2.0 0.00 0.00 0.00 69 1017.3
20260509230405 60 229 0.0 1.0 0.00 0.00 0.00 74 1017.6
20260509225937 60 248 0.0 1.0 0.00 0.00 0.00 74 1017.3
20260509224937 61 69 0.0 1.0 0.00 0.00 0.00 71 1017.5
20260509224438 61 132 0.0 0.0 0.00 0.00 0.00 73 1017.3
20260509223937 61 214 0.0 1.0 0.00 0.00 0.00 73 1017.6
20260509223437 61 179 0.0 1.0 0.00 0.00 0.00 72 1017.3
20260509222936 61 252 1.0 1.0 0.00 0.00 0.00 71 1017.3
20260509221936 62 252 0.0 1.0 0.00 0.00 0.00 71 1017.3
20260509220939 62 124 0.0 1.0 0.00 0.00 0.00 69 1017.3
20260509220437 62 72 0.0 1.0 0.00 0.00 0.00 69 1017.3
20260509215938 63 93 0.0 0.0 0.00 0.00 0.00 69 1017.3
20260509215437 63 154 0.0 0.0 0.00 0.00 0.00 69 1017.2
20260509214937 63 253 0.0 0.0 0.00 0.00 0.00 68 1017.0
20260509214436 63 133 0.0 0.0 0.00 0.00 0.00 68 1017.3
20260509213436 62 69 0.0 1.0 0.00 0.00 0.00 70 1017.3
20260509212936 62 78 0.0 1.0 0.00 0.00 0.00 70 1017.3
20260509211936 62 71 0.0 1.0 0.00 0.00 0.00 70 1017.3
20260509211437 62 136 0.0 1.0 0.00 0.00 0.00 71 1017.1
20260509210937 62 154 0.0 1.0 0.00 0.00 0.00 70 1017.0
20260509210436 62 154 0.0 1.0 0.00 0.00 0.00 70 1016.9
20260509205437 63 197 0.0 1.0 0.00 0.00 0.00 68 1016.7
20260509204937 63 166 0.0 1.0 0.00 0.00 0.00 68 1016.9
20260509204437 63 166 0.0 0.0 0.00 0.00 0.00 67 1016.9
20260509203937 63 166 0.0 0.0 0.00 0.00 0.00 67 1016.9
20260509202937 64 166 0.0 0.0 0.00 0.00 0.00 68 1016.8
20260509201937 64 166 0.0 0.0 0.00 0.00 0.00 67 1016.6
20260509201436 64 166 0.0 0.0 0.00 0.00 0.00 67 1016.6
20260509200937 64 166 0.0 1.0 0.00 0.00 0.00 66 1016.6
20260509195912 64 166 0.0 1.0 0.00 0.00 0.00 66 1016.9
20260509195411 64 166 0.0 1.0 0.00 0.00 0.00 67 1016.6
20260509194912 65 180 0.0 1.0 0.00 0.00 0.00 65 1016.5
20260509194413 65 180 0.0 1.0 0.00 0.00 0.00 65 1016.4
20260509193911 65 180 0.0 1.0 0.00 0.00 0.00 64 1016.3
20260509193412 65 218 0.0 2.0 0.00 0.00 0.00 64 1016.3
20260509192411 65 220 1.0 2.0 0.00 0.00 0.00 62 1016.2
20260509191911 66 190 0.0 1.0 0.00 0.00 0.00 63 1016.0
20260509191413 66 159 0.0 1.0 0.00 0.00 0.00 63 1016.1
20260509190912 66 159 0.0 1.0 0.00 0.00 0.00 62 1015.9
20260509190411 67 213 0.0 1.0 0.00 0.00 0.00 62 1015.9
20260509185913 67 274 0.0 1.0 0.00 0.00 0.00 61 1015.9
20260509185411 67 222 0.0 1.0 0.00 0.00 0.00 61 1015.6
20260509184912 67 196 1.0 1.0 0.00 0.00 0.00 60 1015.9
20260509184412 67 159 0.0 1.0 0.00 0.00 0.00 60 1015.9
20260509183911 67 107 0.0 1.0 0.00 0.00 0.00 60 1015.9
20260509183412 67 195 0.0 1.0 0.00 0.00 0.00 61 1015.8
20260509182412 68 75 0.0 2.0 0.00 0.00 0.00 60 1015.6
20260509181912 68 76 1.0 2.0 0.00 0.00 0.00 60 1015.5
20260509181413 68 163 0.0 0.0 0.00 0.00 0.00 59 1015.3
20260509180911 68 122 0.0 1.0 0.00 0.00 0.00 58 1015.5
20260509175912 69 177 0.0 1.0 0.00 0.00 0.00 58 1015.2
20260509174912 70 189 0.0 1.0 0.00 0.00 0.00 56 1015.2
20260509174413 70 184 0.0 1.0 0.00 0.00 0.00 57 1015.2
20260509173414 71 103 0.0 1.0 0.00 0.00 0.00 55 1015.2
20260509172912 72 89 0.0 1.0 0.00 0.00 0.00 53 1015.2
20260509172412 72 118 0.0 1.0 0.00 0.00 0.00 52 1015.0
20260509171911 73 92 0.0 2.0 0.00 0.00 0.00 52 1015.2
20260509170411 74 121 0.0 2.0 0.00 0.00 0.00 48 1015.2
20260509165914 74 169 0.0 2.0 0.00 0.00 0.00 46 1015.2
20260509165412 74 187 1.0 2.0 0.00 0.00 0.00 47 1014.9
20260509164415 74 253 2.0 3.0 0.00 0.00 0.00 47 1015.2
20260509163911 74 240 1.0 3.0 0.00 0.00 0.00 47 1015.1
20260509163412 74 252 1.0 5.0 0.00 0.00 0.00 46 1015.2
20260509162912 75 237 2.0 5.0 0.00 0.00 0.00 45 1015.2
20260509162411 75 259 3.0 7.0 0.00 0.00 0.00 46 1014.9
20260509161911 75 240 2.0 7.0 0.00 0.00 0.00 45 1015.2
20260509161412 75 240 4.0 7.0 0.00 0.00 0.00 45 1014.9
20260509155911 75 250 3.0 5.0 0.00 0.00 0.00 45 1015.2
20260509155412 76 250 3.0 5.0 0.00 0.00 0.00 43 1014.9
20260509154913 77 249 2.0 3.0 0.00 0.00 0.00 43 1014.9
20260509154415 76 245 2.0 5.0 0.00 0.00 0.00 42 1015.2
20260509153912 76 266 3.0 5.0 0.00 0.00 0.00 43 1015.2
20260509153413 76 232 3.0 5.0 0.00 0.00 0.00 43 1014.9
20260509152912 78 246 1.0 7.0 0.00 0.00 0.00 40 1014.9
20260509152411 79 251 2.0 7.0 0.00 0.00 0.00 39 1015.1
20260509151912 79 223 2.0 7.0 0.00 0.00 0.00 38 1015.2
20260509151413 79 244 2.0 7.0 0.00 0.00 0.00 37 1015.1
20260509150912 79 234 2.0 7.0 0.00 0.00 0.00 38 1014.9
20260509150411 80 269 3.0 7.0 0.00 0.00 0.00 37 1015.2
20260509145913 79 244 2.0 7.0 0.00 0.00 0.00 37 1014.9
20260509144415 78 260 5.0 9.0 0.00 0.00 0.00 37 1014.9
20260509143912 78 272 3.0 9.0 0.00 0.00 0.00 36 1015.0
20260509142912 79 250 2.0 7.0 0.00 0.00 0.00 34 1015.2
20260509142412 80 279 1.0 7.0 0.00 0.00 0.00 34 1015.2
20260509141911 79 242 2.0 7.0 0.00 0.00 0.00 34 1015.2
20260509141412 79 233 4.0 7.0 0.00 0.00 0.00 35 1015.2
20260509140913 79 252 3.0 8.0 0.00 0.00 0.00 36 1015.2
20260509140412 79 282 3.0 8.0 0.00 0.00 0.00 35 1015.2
20260509135912 80 247 5.0 9.0 0.00 0.00 0.00 35 1015.2
20260509135411 79 222 2.0 9.0 0.00 0.00 0.00 35 1015.2
20260509134912 79 264 3.0 9.0 0.00 0.00 0.00 35 1015.2
20260509134412 78 262 2.0 9.0 0.00 0.00 0.00 35 1015.2
20260509133914 78 271 4.0 9.0 0.00 0.00 0.00 35 1015.2
20260509132912 78 238 4.0 10.0 0.00 0.00 0.00 37 1015.3
20260509132413 77 282 4.0 10.0 0.00 0.00 0.00 37 1015.6
20260509131912 78 230 5.0 9.0 0.00 0.00 0.00 37 1015.2
20260509130912 78 239 3.0 9.0 0.00 0.00 0.00 38 1015.6
20260509130412 78 246 3.0 12.0 0.00 0.00 0.00 38 1015.4
20260509125915 78 240 3.0 12.0 0.00 0.00 0.00 38 1015.2
20260509125411 78 247 5.0 12.0 0.00 0.00 0.00 39 1015.4
20260509124912 78 296 4.0 8.0 0.00 0.00 0.00 39 1015.5
20260509123913 78 248 3.0 8.0 0.00 0.00 0.00 40 1015.5
20260509122412 78 237 3.0 7.0 0.00 0.00 0.00 39 1015.2
20260509121912 78 252 3.0 8.0 0.00 0.00 0.00 41 1015.6
20260509121413 77 229 3.0 8.0 0.00 0.00 0.00 40 1015.6
20260509120912 77 234 3.0 8.0 0.00 0.00 0.00 41 1015.6
20260509120412 77 245 3.0 8.0 0.00 0.00 0.00 40 1015.9
20260509115412 77 258 3.0 9.0 0.00 0.00 0.00 41 1015.9
20260509114912 77 236 2.0 8.0 0.00 0.00 0.00 42 1015.8
20260509114411 77 219 4.0 7.0 0.00 0.00 0.00 40 1015.9
20260509113911 77 262 3.0 7.0 0.00 0.00 0.00 41 1015.9
20260509113412 76 249 3.0 8.0 0.00 0.00 0.00 41 1015.9
20260509112912 77 243 2.0 8.0 0.00 0.00 0.00 41 1015.9
20260509112411 77 256 1.0 8.0 0.00 0.00 0.00 42 1016.3
20260509111912 76 243 3.0 7.0 0.00 0.00 0.00 42 1016.3
20260509110412 75 270 2.0 7.0 0.00 0.00 0.00 41 1016.4
20260509105913 75 240 2.0 7.0 0.00 0.00 0.00 41 1016.6
20260509105413 75 238 3.0 5.0 0.00 0.00 0.00 42 1016.7
20260509104912 75 248 1.0 7.0 0.00 0.00 0.00 42 1016.6
20260509103911 74 254 2.0 7.0 0.00 0.00 0.00 45 1016.9
20260509103412 73 269 1.0 7.0 0.00 0.00 0.00 46 1016.9
20260509102912 74 248 3.0 7.0 0.00 0.00 0.00 46 1017.3
20260509102412 73 254 1.0 3.0 0.00 0.00 0.00 48 1017.3
20260509101912 73 234 2.0 3.0 0.00 0.00 0.00 46 1017.3
20260509101412 73 308 0.0 3.0 0.00 0.00 0.00 49 1017.5
20260509095912 72 63 0.0 7.0 0.00 0.00 0.00 49 1017.6
20260509094912 71 258 3.0 7.0 0.00 0.00 0.00 51 1017.6
20260509093914 71 74 1.0 3.0 0.00 0.00 0.00 53 1017.9